De Queen, AR

3:08 AM CDT on March 28, 2020 (GMT -0500)
Helms Sevier County

Weather History for KDEQ - December, 2019

Change the Weather History Date:

Wednesday, December 11, 2019

  Actual Average Record
Temperature  
Mean Temperature 38 °F -  
Max Temperature 53 °F - 77 °F (2007)
Min Temperature 23 °F - 14 °F (1995)
Degree Days  
Heating Degree Days 27    
Moisture  
Dew Point 24 °F    
Average Humidity 76    
Maximum Humidity 96    
Minimum Humidity 32    
Precipitation  
Precipitation 0.00 in - 4.50 in (1985)
Sea Level Pressure  
Sea Level Pressure 30.49 in    
Wind  
Wind Speed 1 mph ()    
Max Wind Speed 7 mph    
Max Gust Speed -    
Visibility 7.5 miles    
Events      
T = Trace of Precipitation, MM = Missing Value Source: Averaged Metar Reports

Daily Weather History Graph

Daily Weather History Graph

Search for Another Location

Airport or City:

Astronomy

Dec. 11, 2019 Rise Set
Actual Time 7:12 AM CST 5:08 PM CST
Civil Twilight 6:45 AM CST 5:36 PM CST
Nautical Twilight 6:13 AM CST 6:07 PM CST
Astronomical Twilight 5:43 AM CST 6:38 PM CST
Moon 4:58 PM CST (12/11) 6:30 AM CST (12/11)
Length of Visible Light 10h 51m
Length of Day
9h 55m
Full, 100% of the Moon is Illuminated
Dec 11
Full
Dec 11
Full
Dec 18
Last Quarter
Dec 25
New
Jan 2
First Quarter

Hourly Weather History & Observations

Time (CST) Temp. Windchill Dew Point Humidity Pressure Visibility Wind Dir Wind Speed Gust Speed Precip Events Conditions
12:53 AM 27.0 °F - 23.0 °F 85% 30.46 in 10.0 mi Calm Calm - N/A   Clear
1:53 AM 27.0 °F - 23.0 °F 85% 30.47 in 10.0 mi Calm Calm - N/A   Clear
2:53 AM 26.1 °F - 23.0 °F 88% 30.49 in 10.0 mi Calm Calm - N/A   Clear
3:53 AM 25.0 °F - 21.9 °F 88% 30.49 in 10.0 mi Calm Calm - N/A   Clear
4:31 AM 24.1 °F - 21.0 °F 88% 30.49 in 2.0 mi Calm Calm - N/A   Partly Cloudy
4:34 AM 24.1 °F - 21.0 °F 88% 30.48 in 1.0 mi Calm Calm - N/A   Mist
4:42 AM 25.0 °F - 21.0 °F 85% 30.48 in 0.8 mi Calm Calm - N/A   Mist
4:45 AM 25.0 °F - 21.9 °F 88% 30.48 in 1.2 mi Calm Calm - N/A   Scattered Clouds
4:53 AM 24.1 °F - 21.0 °F 88% 30.49 in 1.5 mi Calm Calm - N/A   Partly Cloudy
4:58 AM 24.1 °F - 21.0 °F 88% 30.49 in 3.0 mi Calm Calm - N/A   Partly Cloudy
5:48 AM 24.8 °F - 21.2 °F 86% 30.50 in 1.8 mi Calm Calm - N/A   Clear
5:53 AM 24.1 °F - 21.0 °F 88% 30.51 in 2.0 mi Calm Calm - N/A   Clear
6:53 AM 23.0 °F - 19.9 °F 88% 30.54 in 10.0 mi Calm Calm - N/A   Clear
7:53 AM 25.0 °F - 24.1 °F 96% 30.56 in 10.0 mi Calm Calm - N/A   Clear
8:53 AM 30.9 °F - 28.0 °F 89% 30.57 in 10.0 mi Calm Calm - N/A   Clear
9:53 AM 37.0 °F - 30.9 °F 79% 30.59 in 10.0 mi Calm Calm - N/A   Clear
11:53 AM 46.9 °F - 27.0 °F 46% 30.55 in 10.0 mi Variable 4.6 mph - N/A   Clear
12:53 PM 50.0 °F - 27.0 °F 41% 30.51 in 10.0 mi Variable 3.5 mph - N/A   Clear
1:53 PM 52.0 °F - 24.1 °F 34% 30.48 in 10.0 mi Calm Calm - N/A   Clear
2:53 PM 53.1 °F - 24.1 °F 32% 30.47 in 10.0 mi South 6.9 mph - N/A   Clear
3:53 PM 52.0 °F - 25.0 °F 35% 30.46 in 10.0 mi SSE 3.5 mph - N/A   Clear
5:53 PM 45.0 °F 42.6 °F 26.1 °F 48% 30.45 in 10.0 mi SE 4.6 mph - N/A   Clear
6:53 PM 36.0 °F - 28.9 °F 76% 30.45 in 10.0 mi Calm Calm - N/A   Clear
7:53 PM 34.0 °F - 28.9 °F 82% 30.45 in 10.0 mi Calm Calm - N/A   Clear
8:53 PM 32.0 °F - 28.0 °F 85% 30.46 in 10.0 mi Calm Calm - N/A   Clear
9:53 PM 30.9 °F - 28.0 °F 89% 30.45 in 10.0 mi Calm Calm - N/A   Clear
10:53 PM 28.9 °F 25.2 °F 26.1 °F 89% 30.45 in 10.0 mi ENE 3.5 mph - N/A   Clear
11:53 PM 28.0 °F 24.2 °F 25.0 °F 88% 30.44 in 8.0 mi East 3.5 mph - N/A   Clear